GFSFLT2_500_rhum_273.txt.gz
RH
83 98 92 89 76 78 75 73 92 98 94 91 30 22 23 28 41 49 41 38 45 54 56 76 74 61 37 34 32 39 55 52
95 97 96 85 91 85 68 70 96 95 97 98 44 64 80 54 53 57 63 60 59 53 58 59 68 44 40 36 43 45 51 60
98 92 98 97 96 89 92 96 96 84 96 95 99 82 67 70 70 68 70 73 73 66 60 60 68 60 74 70 79 83 80 72
96 81 83 76 95 87 95 95 96 97 95 97 94 75 75 84 76 79 75 88 62 78 81 82 74 49 40 43 59 51 58 55
92 92 89 92 96 75 91 96 95 83 88 62 78 78 75 62 61 58 58 62 59 65 62 62 56 42 34 30 28 29 34 32
89 90 94 98 96 93 96 96 95 78 75 79 85 69 70 63 51 48 53 54 48 44 43 43 37 37 37 34 33 32 33 32
78 90 79 89 92 90 97 97 90 68 74 76 78 61 49 47 42 34 28 23 18 16 16 18 24 28 31 32 31 31 30 23
83 80 81 72 85 93 98 95 75 70 77 79 76 58 46 42 30 21 21 25 26 17 12 9 8 8 7 7 8 8 7 6
83 71 77 76 72 88 96 94 85 73 73 62 57 52 44 42 42 40 38 30 23 12 8 6 5 5 5 5 6 12 19 20
74 76 70 84 83 85 92 93 71 70 52 39 38 39 38 40 38 24 12 8 7 5 5 5 5 5 5 6 9 11 21 30
85 79 80 94 89 90 96 88 78 49 29 25 19 13 12 11 10 9 7 6 6 5 5 5 7 10 10 18 20 23 27 33
66 78 72 75 76 79 78 66 39 18 14 14 15 14 13 10 8 7 7 7 6 9 12 23 29 28 26 24 16 17 21 15
71 62 49 51 64 68 51 17 15 15 16 16 16 16 14 12 10 8 8 7 8 11 19 27 30 14 7 5 4 4 4 4
38 51 50 22 17 16 16 17 18 20 18 18 19 19 20 19 16 12 9 8 9 13 22 33 28 11 5 4 4 4 5 4
27 16 15 16 18 19 19 20 22 23 23 24 24 23 23 22 18 13 10 10 8 10 16 27 20 6 5 5 7 7 7 6
28 16 18 19 19 19 20 21 22 24 28 31 29 28 27 26 23 18 14 13 12 10 9 9 21 10 5 6 8 8 7 6
16 17 19 21 21 20 21 22 22 25 33 35 34 32 30 29 26 24 19 15 12 9 8 9 13 21 9 7 8 9 8 7
18 18 20 22 21 20 20 20 21 21 24 30 33 33 32 31 30 26 20 14 11 10 12 17 26 31 22 9 8 8 8 8
16 20 20 20 19 18 18 18 19 20 21 28 36 36 35 34 32 27 21 15 13 16 23 33 34 25 16 10 9 9 8 8
18 16 17 17 17 16 16 17 18 20 22 32 40 40 38 36 33 29 22 17 15 17 23 29 24 15 12 12 11 11 12 14

GFSFLT2_500_rhum_276.txt.gz
RH
95 96 97 97 96 85 94 88 76 76 97 97 98 94 70 72 53 57 47 48 55 61 55 51 46 46 55 66 60 52 44 44
92 93 98 94 97 96 98 96 96 93 98 94 99 96 91 89 84 55 50 49 66 67 71 73 60 57 58 64 63 58 65 65
97 97 96 84 94 97 93 98 92 92 97 95 97 98 83 73 75 71 66 70 60 61 56 61 61 68 69 59 42 35 44 60
97 92 95 92 94 95 82 96 97 93 96 96 84 67 67 63 57 50 46 61 49 46 35 35 31 40 39 38 33 30 28 28
81 93 80 78 94 97 91 96 97 94 73 71 74 66 61 73 61 56 44 38 37 31 23 21 20 19 22 26 28 27 26 24
70 76 70 68 78 97 76 96 92 86 67 72 75 73 72 52 44 38 33 23 17 15 21 25 18 14 10 9 9 11 12 9
62 70 66 75 68 89 90 98 96 94 66 63 62 56 60 47 39 39 37 38 36 33 26 20 15 11 8 7 6 7 7 6
64 62 64 70 81 87 96 99 97 94 75 59 45 40 38 42 48 44 41 38 32 21 15 12 9 7 6 5 5 5 6 8
74 66 68 73 69 82 79 90 90 93 68 49 31 20 17 14 13 12 12 12 11 10 9 7 5 5 5 5 5 5 6 8
63 61 73 74 83 94 94 94 98 80 48 27 15 12 12 11 11 11 10 9 8 6 6 6 5 5 6 6 6 8 10 17
53 54 64 68 75 84 77 94 76 56 26 14 13 12 12 13 13 13 12 11 9 8 7 6 6 10 13 18 21 21 21 11
55 54 60 51 45 44 42 32 18 16 15 14 14 15 16 16 16 15 14 13 12 10 8 6 6 8 14 22 22 15 6 4
39 34 51 44 20 16 15 15 16 16 16 16 16 18 20 20 20 18 17 17 15 12 10 10 8 8 12 22 26 19 6 4
29 34 15 14 15 17 18 18 17 16 17 18 18 20 22 25 24 22 21 20 19 17 15 13 11 9 8 14 17 12 6 5
15 22 15 15 18 18 16 14 15 16 18 18 19 21 25 28 27 24 25 21 19 19 17 14 10 8 8 8 14 12 6 6
24 16 15 16 19 17 15 16 17 17 17 18 18 20 25 30 29 27 26 22 20 21 18 14 10 10 10 10 8 12 17 7
40 18 18 17 18 20 20 19 17 16 16 16 18 21 23 32 32 31 28 23 23 24 20 16 15 14 14 20 29 31 27 26
42 23 16 18 19 19 18 16 18 17 15 16 19 22 29 36 38 35 31 27 26 26 23 22 18 16 15 20 25 20 15 15
44 41 29 17 17 16 21 35 37 32 18 18 22 24 32 40 41 39 34 31 29 28 26 24 21 18 16 20 26 27 20 15
51 54 53 48 47 50 51 51 49 26 18 23 23 28 35 37 38 40 40 37 33 31 27 28 27 23 18 18 25 29 26 17

GFSFLT2_500_rhum_279.txt.gz
RH
84 94 91 98 84 82 83 87 88 87 86 99 97 92 91 94 82 66 52 55 43 41 50 62 59 57 52 39 47 46 50 53
87 89 93 95 90 84 91 94 94 92 86 89 83 95 88 80 76 78 73 67 66 62 61 58 56 59 67 65 58 62 57 32
96 91 83 91 95 93 93 95 95 90 80 84 92 94 77 73 72 64 54 44 58 53 41 30 29 24 31 39 39 40 29 20
68 83 82 76 84 94 94 78 87 90 82 76 66 54 51 56 62 60 54 41 33 30 26 20 17 19 20 18 17 17 16 17
66 67 63 61 65 78 85 95 99 90 78 62 64 66 65 61 47 35 33 33 28 25 22 31 36 32 29 21 17 14 14 13
62 52 50 49 50 63 72 85 98 97 90 59 58 54 40 45 47 41 41 40 40 40 38 35 28 18 14 10 8 7 6 6
52 53 53 59 69 70 74 87 92 87 95 84 56 37 28 24 19 15 12 11 11 10 11 11 10 9 8 7 6 5 5 5
54 56 52 57 69 72 76 80 85 98 93 68 42 21 14 12 11 10 10 9 9 9 8 8 7 6 6 5 5 5 4 4
55 52 49 53 66 71 92 98 93 95 83 48 23 13 13 11 12 12 12 12 11 11 10 9 7 6 6 5 5 7 9 6
57 57 42 46 50 56 68 82 79 66 50 27 16 12 12 14 15 15 15 14 14 13 12 11 9 8 6 6 6 9 14 14
36 30 28 40 42 38 32 23 21 15 13 14 14 15 16 15 16 17 18 18 17 16 14 14 12 11 10 9 8 7 10 14
25 25 28 27 26 18 16 14 14 14 14 15 16 17 19 19 19 20 22 21 20 19 15 17 18 17 14 13 10 8 8 11
26 18 27 16 14 15 15 14 15 15 15 17 18 18 18 19 20 20 24 24 23 20 16 16 18 18 14 12 10 9 8 10
26 23 15 17 14 16 16 16 14 14 17 17 17 17 17 17 21 22 26 26 25 22 18 18 19 19 14 11 10 10 9 10
40 34 21 14 15 17 18 16 16 17 17 18 16 15 16 19 21 25 26 27 29 26 23 22 22 21 18 15 14 15 14 14
37 38 31 17 16 17 18 18 19 20 18 30 26 18 17 22 23 27 26 27 29 29 27 26 26 24 22 21 19 16 20 25
31 37 40 30 21 16 18 19 17 23 45 43 26 18 23 23 29 32 33 34 34 35 33 30 30 27 25 24 23 20 17 16
29 39 40 40 41 32 31 30 37 42 41 31 19 23 24 30 34 36 36 36 36 41 41 37 34 32 30 30 29 23 20 16
32 41 41 38 41 44 42 36 35 26 24 25 22 25 30 33 37 39 40 40 37 44 47 44 39 36 36 39 37 28 23 19
33 40 39 35 35 35 37 34 24 29 29 22 23 26 27 32 35 38 39 45 44 45 51 53 47 44 42 47 46 31 25 22

GFSFLT2_500_rhum_282.txt.gz
RH
96 91 94 95 92 88 87 86 91 86 85 87 88 92 94 81 67 73 74 64 53 47 49 57 55 66 56 55 64 63 46 35
70 74 82 87 95 95 90 82 95 86 88 73 56 73 76 69 68 66 63 58 51 67 68 60 45 37 29 31 44 49 57 60
63 74 82 77 82 88 96 87 95 91 96 83 65 57 51 53 63 71 68 61 44 32 30 30 25 19 18 21 22 21 19 19
68 58 58 59 61 76 82 86 91 96 99 73 66 66 65 65 61 45 36 34 31 29 27 25 24 27 31 36 32 28 24 18
69 55 58 61 63 64 67 79 80 95 96 78 61 59 49 37 36 40 40 37 36 33 29 26 26 25 21 15 14 13 10 8
74 52 52 55 63 68 69 75 81 91 91 96 84 58 28 18 16 12 12 11 10 10 10 9 10 10 9 9 9 8 6 5
50 47 42 36 42 66 76 76 83 98 98 97 64 32 14 12 10 10 10 10 10 11 10 9 9 8 7 7 6 6 5 5
51 47 39 29 39 48 67 83 79 77 93 81 50 22 13 12 13 13 14 15 15 15 14 14 12 11 10 9 7 6 6 6
47 36 26 31 42 43 54 59 81 75 59 69 52 28 12 13 15 16 16 17 18 19 18 18 16 14 12 10 9 8 7 7
33 23 21 28 27 30 28 24 39 22 18 14 12 12 15 18 19 20 19 18 19 19 19 17 14 13 12 12 14 14 12 9
23 19 17 22 21 17 16 15 13 13 12 12 14 17 18 18 18 19 21 19 21 22 22 20 16 15 14 14 13 13 12 10
24 19 17 19 16 14 15 16 14 13 11 15 16 17 17 17 16 17 21 20 21 21 24 21 18 17 19 19 17 15 12 10
33 23 21 16 14 15 16 15 13 12 13 16 18 18 17 15 16 19 21 22 21 21 25 25 22 21 23 24 22 18 16 15
37 34 32 29 16 15 17 17 15 14 16 19 23 38 28 18 19 21 22 24 25 26 27 30 30 26 26 27 25 22 20 19
36 34 33 32 24 16 17 18 19 19 19 18 33 42 32 20 20 22 25 27 26 26 26 29 36 37 33 31 29 26 24 24
36 27 26 31 34 23 17 18 19 19 18 28 44 31 22 18 20 23 27 28 28 27 27 28 31 38 41 36 33 30 31 32
34 25 24 27 34 38 32 24 27 30 40 41 25 23 18 16 18 20 23 30 34 32 32 32 32 35 43 46 39 36 36 38
29 24 21 20 29 35 40 41 39 36 33 25 27 20 19 22 20 18 19 23 28 28 27 29 33 36 41 54 50 44 43 50
25 23 22 20 28 30 32 31 29 28 30 29 24 22 22 23 20 18 16 20 25 27 28 28 34 35 36 56 62 55 53 58
27 24 22 25 25 25 26 30 26 24 24 21 20 19 18 16 15 13 13 16 21 24 26 28 33 36 41 65 75 69 65 66

GFSFLT2_500_rhum_285.txt.gz
RH
66 77 87 85 89 91 94 94 85 87 93 90 70 83 85 79 75 72 77 77 71 65 60 59 52 55 61 57 32 37 47 57
61 63 71 71 84 86 93 91 82 82 87 74 69 68 64 60 66 70 69 67 60 47 67 54 49 43 30 21 19 24 27 23
67 63 64 68 70 71 86 90 86 94 92 96 93 80 64 61 56 53 52 49 42 35 30 27 25 23 21 21 23 31 33 29
71 60 55 62 64 68 73 73 71 81 93 92 80 64 57 49 44 42 40 34 32 30 22 17 19 17 15 16 18 15 13 12
68 57 52 51 53 62 73 72 83 84 95 94 78 79 74 31 22 15 13 12 12 11 10 10 9 8 8 8 8 8 8 7
47 47 46 34 30 40 65 76 80 86 100 96 97 84 38 15 12 12 12 13 13 13 13 12 12 11 10 10 10 9 7 6
38 44 34 24 26 36 46 66 79 96 90 93 88 46 15 12 13 13 14 15 15 14 14 15 15 14 12 11 10 10 8 7
33 36 23 24 28 34 51 60 78 78 80 85 67 44 23 13 14 18 20 20 19 17 16 16 15 14 14 12 11 11 11 11
25 22 20 20 19 18 29 36 59 52 30 24 32 22 14 17 19 19 19 20 21 19 19 17 15 14 15 14 13 13 13 13
17 18 18 18 16 15 15 17 16 18 14 13 14 16 18 18 17 17 17 18 21 19 17 16 16 17 17 16 17 18 18 16
20 20 20 16 15 15 15 15 15 15 14 14 16 16 17 18 17 16 16 20 20 17 17 18 19 18 18 18 19 20 20 19
26 27 24 20 17 15 16 16 16 16 14 14 16 19 28 30 26 18 19 21 18 17 18 18 20 19 19 23 24 24 26 25
29 29 36 30 26 25 16 17 17 17 15 16 18 22 36 40 32 20 21 20 19 17 15 18 20 20 20 21 28 31 30 30
30 30 34 34 30 30 20 16 18 19 18 18 19 18 32 38 27 22 19 20 23 27 26 20 18 18 19 19 22 32 38 36
30 32 32 27 26 30 28 22 18 18 18 19 19 26 34 30 22 18 18 18 21 23 25 23 20 19 19 22 25 28 38 44
31 30 32 25 24 31 29 25 29 22 20 28 30 29 26 24 18 16 16 15 15 16 19 23 22 21 23 29 31 31 29 50
31 27 27 22 24 22 20 25 39 39 38 30 25 26 26 21 18 14 15 10 8 9 11 14 18 22 26 30 33 33 38 60
34 29 24 22 24 22 23 28 36 33 29 31 26 29 22 18 14 10 9 8 8 9 11 14 17 21 27 30 28 30 40 66
34 29 24 20 23 19 26 31 32 30 31 28 32 28 19 12 9 9 8 8 9 10 12 16 20 23 27 31 25 31 40 52
32 28 23 19 20 19 25 28 28 30 31 30 27 20 11 9 8 8 8 8 9 11 13 17 22 25 27 29 24 33 43 49

GFSFLT2_500_rhum_288.txt.gz
RH
56 61 69 69 75 77 94 91 86 89 93 100 76 70 73 70 68 68 67 64 66 65 53 60 64 49 47 45 33 23 20 22
57 59 64 65 65 66 71 78 88 99 92 93 84 78 63 59 59 61 56 61 60 52 38 35 31 29 27 25 24 26 30 33
64 65 52 55 62 63 64 71 72 88 94 93 92 82 69 63 54 52 48 39 35 28 25 23 18 16 16 17 19 19 18 20
61 65 51 45 41 51 55 69 65 72 90 95 93 72 68 76 31 21 13 10 10 10 10 11 10 11 10 10 9 8 8 8
41 46 49 40 27 27 37 72 72 74 99 98 91 88 76 29 13 11 11 12 13 14 14 13 13 13 13 13 13 11 10 9
30 39 46 25 26 28 37 53 72 80 91 90 87 77 34 14 13 13 14 15 18 18 18 16 14 13 12 12 11 11 11 11
27 26 30 25 27 31 32 44 62 74 78 75 78 64 25 17 13 16 19 21 20 21 21 18 15 12 12 11 12 12 12 11
24 25 21 23 22 19 20 24 44 60 73 74 74 59 38 14 18 20 19 18 18 21 22 16 15 14 15 16 16 15 15 17
22 21 20 21 19 16 14 15 15 22 24 18 19 18 16 18 18 17 17 17 17 22 18 15 15 14 13 15 17 20 20 20
21 20 19 18 19 16 15 15 14 12 12 14 14 16 17 18 21 25 23 19 19 21 16 14 12 10 9 9 10 10 14 23
24 22 25 20 19 17 16 17 16 13 12 12 14 16 18 30 34 34 30 21 22 16 9 9 9 10 11 10 9 10 10 12
28 27 24 28 28 27 22 16 18 18 13 12 14 17 20 30 34 34 27 22 17 10 10 10 8 7 9 12 13 12 11 11
32 32 25 24 30 31 28 23 16 18 19 17 17 18 19 20 30 28 23 15 9 11 10 6 6 6 7 9 11 14 14 11
35 35 29 26 27 24 25 29 22 19 18 19 19 19 20 22 31 24 20 14 9 8 6 6 6 7 8 8 10 13 14 12
37 36 33 26 24 22 22 24 30 29 25 21 19 25 30 36 26 24 19 17 12 7 6 6 8 9 10 11 12 12 14 15
36 33 32 28 24 22 20 20 28 26 25 28 32 39 30 28 27 24 19 11 7 7 7 7 8 9 11 13 14 14 13 13
34 32 31 31 25 20 20 20 21 20 21 24 28 27 25 24 24 16 10 8 7 7 8 9 9 11 13 15 18 18 18 17
34 30 32 32 28 21 19 17 17 17 19 22 24 24 20 17 17 11 8 8 7 7 8 9 10 13 14 17 22 24 25 25
38 33 31 32 29 22 19 17 16 18 18 22 24 21 17 15 13 9 9 8 7 7 8 9 12 13 15 17 22 25 27 28
42 36 29 30 26 18 18 18 19 20 19 23 21 20 18 16 13 10 8 7 6 8 8 10 12 14 17 20 25 27 30 28